Regional Weather Roundup
Issued by NWS

Home | Current Version | Previous Version | Graphics & Text | Print | Product List | Glossary On
Versions: 1 2 3 4 5 6 7 8 9 10 11 12 13 14 15 16 17 18 19 20 21 22 23 24 25 26 27 28 29 30 31 32 33 34 35 36 37 38 39 40 41 42 43 44 45 46 47 48 49 50
000
ASUS43 KDMX 221306
RWRIA

WEATHER ROUNDUP FOR IOWA
NATIONAL WEATHER SERVICE DES MOINES IA
800 AM CDT WED MAR 22 2017

NOTE: "FAIR" INDICATES FEW OR NO CLOUDS BELOW 12,000 FEET WITH NO
SIGNIFICANT WEATHER AND/OR OBSTRUCTIONS TO VISIBILITY.

* - THESE STATIONS ARE NOT NWS STATIONS...THUS NOT UNDER NWS
QUALITY CONTROL.  THEY ALSO DO NOT REPORT WEATHER SUCH
AS PRECIPITATION OR FOG.

IAZ001>003-012>014-020>022-031>034-043>046-221400-
   NORTHWEST IOWA

CITY           SKY/WX    TMP DP  RH WIND       PRES   REMARKS
CARROLL *      PTCLDY    28  19  69 E12       30.46R WCI  18
CHEROKEE *     CLOUDY    27  17  66 E10       30.45R WCI  18
DENISON *      CLOUDY    28  19  69 SE7G14    30.43R WCI  21
LE MARS *      CLOUDY    30  16  55 SE10G17   30.43F WCI  21
ORANGE CITY *  CLOUDY    27  18  69 SE13      30.41S WCI  16
SHELDON *      CLOUDY    27  19  74 SE17G23   30.41S WCI  14
SIOUX CITY     CLOUDY    30  18  60 SE13      30.43F WCI  20
SPENCER        CLOUDY    26  16  65 E14       30.44F WCI  14
STORM LAKE *   MOCLDY    25  18  74 E10       30.43S WCI  15
$$

IAZ055>058-069>071-079>083-090>094-221400-
   SOUTHWEST IOWA

CITY           SKY/WX    TMP DP  RH WIND       PRES   REMARKS
ATLANTIC *     CLOUDY    30  18  59 E10       30.45R WCI  21
AUDUBON *      CLOUDY    28  19  69 E9        30.45S WCI  20
CLARINDA *     CLOUDY    34  19  55 E6G12     30.47R WCI  29
COUNCIL BLFS * CLOUDY    32  18  55 E15       30.41F WCI  22
CRESTON *      CLOUDY    30  18  59 E14       30.46R WCI  20
HARLAN  *      MOCLDY    30  19  64 E7        30.48S WCI  23
LAMONI         CLOUDY    31  19  61 E9G16     30.44R WCI  23
RED OAK *      MOCLDY    34  18  51 E7        30.45S WCI  28
SHENANDOAH *   MIX PCPN  34  19  55 E9        30.44S WCI  26
$$

IAZ047>049-059>061-072>074-084-221400-
   CENTRAL IOWA

CITY           SKY/WX    TMP DP  RH WIND       PRES   REMARKS
AMES           PTCLDY    27  18  69 E10       30.49R WCI  17
ANKENY *       CLOUDY    28  19  69 E9        30.50R WCI  20
BOONE *        PTCLDY    27  18  69 E15       30.46S WCI  15
CHARITON *     PTCLDY    28  21  74 E14       30.47R WCI  17
DES MOINES     CLOUDY    30  18  60 E12       30.49R WCI  20
GRINNELL*      PTCLDY    26  20  78 E6        30.51R WCI  19
KNOXVILLE *    CLOUDY    30  21  69 E12       30.48  WCI  21
MARSHALLTOWN   CLOUDY    25  17  72 E15       30.50R WCI  13
NEWTON *       PTCLDY    27  19  74 E10       30.49R WCI  17
PELLA *        MOCLDY    29  23  76 E8        30.51R WCI  21
PERRY *          N/A     29  15  58 E13       30.47R WCI  18
$$

IAZ004>006-015-016-023>025-035-036-221400-
   NORTH CENTRAL IOWA

CITY           SKY/WX    TMP DP  RH WIND       PRES   REMARKS
ALGONA *       CLEAR     25  18  74 E9        30.47S WCI  15
CLARION *      CLOUDY    25  18  74 E13       30.49R WCI  13
ESTHERVILLE    CLOUDY    23  17  78 E14       30.45F WCI  11
FORT DODGE *   PTCLDY    25  16  68 E9        30.48S WCI  15
MASON CITY     CLEAR     23  14  68 E14       30.50F WCI  11
FOREST CITY *    N/A     23  16  74 E12       30.49R WCI  12
WEBSTER CITY * PTCLDY    27  18  69 E13       30.47R WCI  16
IOWA FALLS *     N/A     26  18  72 E13       30.50R WCI  14
$$

IAZ007>011-017>019-026>030-037>042-050>054-066-221400-
   NORTHEAST IOWA

CITY           SKY/WX    TMP DP  RH WIND       PRES   REMARKS
CEDAR RAPIDS   CLOUDY    27  18  69 E14       30.51R WCI  16
CHARLES CITY * CLOUDY    23  12  63 E12       30.53R WCI  12
CLINTON *      SUNNY     27  18  69 E14       30.55R WCI  16
DECORAH *      PTCLDY    21  10  63 E7        30.53R WCI  13
DUBUQUE        PTCLDY    23  13  65 E9        30.54R WCI  13
MONTICELLO *   PTCLDY    25  16  68 E8G15     30.54R WCI  16
OELWEIN *      PTCLDY    23  14  68 E12       30.54R WCI  12
WATERLOO       PTCLDY    22  16  78 E10       30.53R WCI  11
$$

IAZ064-065-067-068-078-221400-
   EAST CENTRAL IOWA

CITY           SKY/WX    TMP DP  RH WIND       PRES   REMARKS
DAVENPORT      CLOUDY    29  21  72 E9        30.54R WCI  20
IOWA CITY      CLOUDY    30  22  72 E6        30.54R WCI  24
MUSCATINE *    PTCLDY    30  21  69 E14       30.55R WCI  20
QUAD CITIES    MOSUNNY   29  18  63 E14       30.54R WCI  18
$$

IAZ062-063-075>077-085>089-095>099-221400-
   SOUTHEAST IOWA

CITY           SKY/WX    TMP DP  RH WIND       PRES   REMARKS
BURLINGTON     PTCLDY    29  24  82 E9        30.51R WCI  20
FAIRFIELD *    PTCLDY    28  23  80 E9        30.50R WCI  20
FORT MADISON * PTCLDY    30  27  86 E6        30.52R WCI  24
KEOKUK *       PTCLDY    30  27  86 E7        30.50R WCI  23
OSKALOOSA *      N/A     29  24  81 E12       30.50R WCI  19
CENTERVILLE *    N/A     28  23  80 E7        30.48R WCI  21
OTTUMWA        CLOUDY    29  24  82 E12       30.48R WCI  19
WASHINGTON *   PTCLDY    28  23  80 E13       30.52R WCI  18
$$

ABBREVIATIONS USED IN REMARKS
   TC - TEMPERATURES IN CELSIUS
  WCI - WIND CHILL INDEX
   HX - HEAT INDEX
  VSB - VISIBILITY
$$





USA.gov is the U.S. government's official web portal to all federal, state and local government web resources and services.